www.pogodaiklimat.ru

Погода и климат >> Архив погоды >> Австрия >> Вена Донауфельд


ПОГОДА в Вене Донауфельд

  • Прогноз погоды в Вене Донауфельд
  • Монитор погоды в Вене Донауфельд

АРХИВ ПОГОДЫ в Вене Донауфельд

Время (UTC), дата Ветер
(напр.,м/с)
 
Видим.   Явления Облачность Т
(С)
Тd
(С)
f
(%)
Тe
(С)
Тes
(С)
Комфортность P
(гПа)
Po
(гПа)
Тmin
(С)
Tmax
(С)
R
(мм)
R24
(мм)
S
(см)
19 11.09 штиль 0 н/о н/о +17.2 +12.1 72 +17 +17 1023.8 1004.7
20 11.09 СЗ 1 н/о н/о +16.1 +12.0 77 +17 +17 1024.5 1005.3
21 11.09 З 1 н/о н/о +15.5 +12.3 81 +16 +16 1025.0 1005.8
22 11.09 штиль 0 н/о н/о +14.8 +12.1 84 +15 +15 1025.5 1006.2
23 11.09 штиль 0 н/о н/о +14.9 +12.5 86 +15 +15 1025.7 1006.4
00 12.09 ЮЗ 1 н/о н/о +17.6 +12.9 74 +19 +19 1025.4 1006.3
01 12.09 З 1 н/о н/о +18.4 +13.1 71 +20 +20 1025.4 1006.4
02 12.09 СЗ 1 н/о н/о +16.6 +13.0 79 +17 +17 1026.0 1006.8
03 12.09 З 1 н/о н/о +16.3 +13.1 81 +17 +17 1026.6 1007.4
04 12.09 СЗ 1 н/о н/о +16.6 +13.0 79 +17 +17 1027.1 1007.9
05 12.09 СЗ 1 н/о н/о +16.4 +12.5 78 +17 +17 1027.9 1008.7
06 12.09 З 1 н/о н/о +17.6 +13.2 75 +19 +19 1028.1 1009.0 +14.3 +19.6
07 12.09 СЗ 3 н/о н/о +19.6 +13.1 66 +21 +21 комфорт 1028.8 1009.8
08 12.09 СЗ 3 н/о н/о +21.0 +12.6 59 +24 +24 комфорт 1029.2 1010.3
09 12.09 З 3 н/о н/о +21.6 +12.1 55 +24 +24 комфорт 1029.7 1010.8
10 12.09 СЗ 2 н/о н/о +22.5 +11.4 49 +25 +25 комфорт 1029.8 1010.9
11 12.09 З 2 н/о н/о +23.4 +12.9 52 +26 +26 жарко 1029.5 1010.7 0.0
12 12.09 З 3 н/о н/о +24.1 +10.7 43 +25 +25 комфорт 1029.1 1010.4 0.0
13 12.09 ЮЗ 3 н/о н/о +24.2 +11.3 44 +26 +26 жарко 1028.8 1010.1 0.0
14 12.09 З 2 н/о н/о +24.6 +11.4 44 +26 +26 жарко 1028.7 1010.0
15 12.09 З 3 н/о н/о +23.5 +11.6 47 +25 +25 комфорт 1028.7 1009.9 0.0
16 12.09 З 3 н/о н/о +22.7 +11.8 50 +25 +25 комфорт 1028.6 1009.8
17 12.09 З 2 н/о н/о +21.1 +11.2 53 +23 +23 комфорт 1028.9 1010.0
18 12.09 З 1 н/о н/о +19.8 +11.5 59 +22 +22 комфорт 1029.2 1010.2 +17.3 +24.8 0.0
20 12.09 СЗ 1 н/о н/о +18.0 +11.7 67 +19 +19 1029.9 1010.8
21 12.09 штиль 0 н/о н/о +16.3 +11.9 75 +16 +16 1030.1 1010.8
22 12.09 СВ 1 н/о н/о +16.6 +11.9 74 +17 +17 1030.0 1010.8
23 12.09 штиль 0 н/о н/о +16.1 +12.0 77 +16 +16 1030.1 1010.8
00 13.09 З 2 н/о н/о +18.1 +11.9 67 +19 +19 1029.9 1010.8
01 13.09 З 1 н/о н/о +18.3 +11.8 66 +20 +20 1029.8 1010.7
02 13.09 З 1 н/о н/о +17.2 +12.2 72 +18 +18 1029.9 1010.7
03 13.09 З 1 н/о н/о +17.0 +12.3 74 +18 +18 1029.6 1010.4
04 13.09 штиль 0 н/о н/о +16.9 +12.5 75 +17 +17 1029.6 1010.4
05 13.09 СЗ 1 н/о н/о +16.0 +12.4 79 +17 +17 1030.0 1010.7
06 13.09 штиль 0 н/о н/о +18.1 +13.0 72 +18 +18 1029.8 1010.7 +15.9 +20.0
07 13.09 штиль 0 н/о н/о +20.3 +13.1 63 +22 +22 комфорт 1029.8 1010.8
08 13.09 З 1 н/о н/о +22.5 +13.7 57 +26 +26 жарко 1029.7 1010.9
09 13.09 СЗ 2 н/о н/о +23.1 +13.8 56 +27 +27 душно 1029.7 1010.9
10 13.09 СЗ 2 н/о н/о +24.2 +13.9 53 +27 +27 жарко 1028.9 1010.2
11 13.09 З 2 н/о н/о +25.1 +14.4 51 +28 +28 жарко 1028.9 1010.2
12 13.09 СЗ 3 н/о н/о +25.7 +14.0 48 +28 +28 жарко 1028.4 1009.8
13 13.09 З 2 н/о н/о +26.2 +14.1 47 +28 +28 жарко 1028.2 1009.6
14 13.09 З 2 н/о н/о +26.8 +14.1 46 +29 +29 жарко 1027.7 1009.2
15 13.09 СЗ 3 н/о н/о +26.4 +12.4 42 +28 +28 жарко 1027.6 1009.0
16 13.09 СЗ 2 н/о н/о +25.1 +12.7 46 +27 +27 жарко 1027.6 1009.0
17 13.09 З 1 н/о н/о +24.0 +13.6 52 +26 +26 жарко 1027.7 1009.0
18 13.09 СЗ 1 н/о н/о +23.2 +14.2 57 +27 +27 душно 1028.4 1009.6 +17.7 +27.2
19 13.09 СЗ 1 н/о н/о +22.6 +13.8 58 +26 +26 жарко 1028.7 1009.9
20 13.09 СЗ 1 н/о н/о +22.2 +13.9 59 +25 +25 комфорт 1028.8 1010.0
21 13.09 СЗ 2 н/о н/о +21.6 +14.0 62 +24 +24 комфорт 1029.0 1010.1
22 13.09 С 2 н/о н/о +20.8 +14.2 66 +24 +24 комфорт 1029.3 1010.4
23 13.09 СЗ 1 н/о н/о +19.4 +14.1 71 +22 +22 комфорт 1029.3 1010.3
00 14.09 С 1 н/о н/о +19.0 +14.1 73 +21 +21 комфорт 1029.8 1010.7
01 14.09 С 1 н/о н/о +18.4 +14.3 77 +20 +20 1029.8 1010.7
02 14.09 С 1 н/о н/о +17.9 +14.0 78 +19 +19 1029.8 1010.7
03 14.09 С 1 н/о н/о +18.5 +14.0 75 +20 +20 1030.0 1010.9
04 14.09 С 2 н/о н/о +17.3 +12.8 75 +18 +18 1030.7 1011.5
05 14.09 С 1 н/о н/о +16.8 +12.3 75 +18 +18 1031.1 1011.9
06 14.09 С 2 н/о н/о +17.0 +11.7 71 +17 +17 1031.6 1012.4 +16.7 +23.4
07 14.09 С 2 н/о н/о +17.7 +11.2 66 +18 +18 1032.1 1012.9
08 14.09 С 2 н/о н/о +19.0 +11.3 61 +20 +20 1032.3 1013.2
09 14.09 С 2 н/о н/о +19.3 +10.4 56 +21 +21 комфорт 1032.3 1013.2
10 14.09 С 2 н/о н/о +20.0 +10.5 54 +22 +22 комфорт 1032.0 1012.9
11 14.09 С 1 н/о н/о +21.4 +11.3 53 +23 +23 комфорт 1031.1 1012.1
12 14.09 С 2 н/о н/о +20.9 +10.5 51 +23 +23 комфорт 1030.9 1011.9
13 14.09 С 2 н/о н/о +21.5 +10.7 50 +23 +23 комфорт 1030.3 1011.4
14 14.09 С 2 н/о н/о +21.6 +10.4 49 +23 +23 комфорт 1029.8 1010.9
15 14.09 С 2 н/о н/о +21.9 +10.5 48 +24 +24 комфорт 1029.1 1010.2
16 14.09 С 1 н/о н/о +21.3 +10.2 49 +23 +23 комфорт 1028.5 1009.6
17 14.09 С 1 н/о н/о +19.9 +10.6 55 +22 +22 комфорт 1028.6 1009.6
18 14.09 штиль 0 н/о н/о +17.3 +11.2 67 +17 +17 1029.0 1009.8 +16.9 +22.3
19 14.09 С 1 н/о н/о +15.9 +10.3 69 +17 +17 1029.4 1010.1
20 14.09 СВ 1 н/о н/о +14.8 +10.4 75 +15 +15 1029.7 1010.3
21 14.09 штиль 0 н/о н/о +13.8 +9.8 77 +13 +13 1029.9 1010.5
22 14.09 штиль 0 н/о н/о +12.9 +9.8 81 +12 +12 1030.2 1010.7
23 14.09 штиль 0 н/о н/о +12.1 +9.2 82 +12 +12 1029.9 1010.3
00 15.09 штиль 0 н/о н/о +11.6 +9.3 86 +11 +11 1029.4 1009.8
01 15.09 штиль 0 н/о н/о +11.3 +9.2 87 +11 +11 1028.9 1009.3
02 15.09 С 1 н/о н/о +10.4 +8.5 88 +10 +10 1028.4 1008.8
03 15.09 штиль 0 н/о н/о +10.0 +7.9 87 +9 +9 1028.4 1008.7
04 15.09 СВ 1 н/о н/о +9.7 +7.9 89 +9 +9 1027.9 1008.2
05 15.09 В 1 н/о н/о +10.2 +7.8 85 +10 +10 1027.9 1008.2
06 15.09 штиль 0 н/о н/о +12.1 +8.2 77 +12 +12 1027.6 1008.1 +9.6 +17.6
07 15.09 В 1 н/о н/о +14.3 +8.6 69 +15 +15 1027.6 1008.2
08 15.09 Ю 1 н/о н/о +16.5 +8.4 59 +17 +17 1026.7 1007.5
09 15.09 Ю 1 н/о н/о +18.3 +9.1 55 +20 +20 1026.2 1007.1
10 15.09 Ю 2 н/о н/о +19.8 +9.2 50 +21 +21 комфорт 1025.6 1006.6
11 15.09 Ю 1 н/о н/о +21.2 +10.4 50 +23 +23 комфорт 1024.4 1005.6
12 15.09 В 1 н/о н/о +22.7 +10.8 47 +25 +25 комфорт 1023.6 1004.9
13 15.09 ЮВ 1 н/о н/о +23.4 +11.4 47 +26 +26 жарко 1023.0 1004.3
14 15.09 В 1 н/о н/о +24.2 +12.3 47 +26 +26 жарко 1021.9 1003.3
15 15.09 Ю 1 н/о н/о +24.5 +12.7 48 +26 +26 жарко 1021.0 1002.4
16 15.09 ЮВ 2 н/о н/о +24.3 +13.2 50 +26 +26 жарко 1020.2 1001.6
17 15.09 ЮВ 1 н/о н/о +23.0 +14.0 57 +26 +26 жарко 1019.7 1001.1
18 15.09 В 1 н/о н/о +20.6 +14.4 68 +24 +24 комфорт 1019.8 1001.0 +11.4 +25.0
19 15.09 С 1 н/о н/о +17.9 +14.1 78 +19 +19 1020.1 1001.1
20 15.09 З 1 н/о н/о +16.5 +14.0 85 +17 +17 1020.1 1001.1
21 15.09 штиль 0 н/о н/о +15.8 +13.7 87 +16 +16 1020.0 1000.9
22 15.09 штиль 0 н/о н/о +15.2 +13.5 90 +15 +15 1020.0 1000.9
23 15.09 штиль 0 н/о н/о +15.1 +13.4 90 +15 +15 1020.0 1000.9
00 16.09 Ю 1 н/о н/о +15.1 +13.6 91 +16 +16 1019.5 1000.4
01 16.09 штиль 0 н/о н/о +15.1 +13.7 91 +15 +15 1019.3 1000.2
02 16.09 штиль 0 н/о н/о +14.4 +13.2 92 +14 +14 1019.2 1000.0
03 16.09 В 1 н/о н/о +14.1 +12.9 92 +14 +14 1018.9 999.7
04 16.09 штиль 0 н/о н/о +14.0 +12.8 92 +14 +14 1018.8 999.6
05 16.09 штиль 0 н/о н/о +13.6 +12.6 94 +13 +13 1018.7 999.5
06 16.09 штиль 0 н/о н/о +16.4 +14.1 86 +16 +16 1018.5 999.5 +13.5 +21.1
07 16.09 СВ 1 н/о н/о +18.5 +15.1 81 +20 +20 1018.9 1000.0
08 16.09 СЗ 2 н/о н/о +21.8 +15.6 68 +25 +25 комфорт 1018.9 1000.2
09 16.09 С 3 н/о н/о +23.0 +13.1 54 +26 +26 жарко 1018.6 1000.0
10 16.09 СЗ 2 н/о н/о +24.1 +12.7 49 +26 +26 жарко 1018.3 999.8
11 16.09 СЗ 2 н/о н/о +25.2 +13.5 48 +27 +27 жарко 1017.5 999.0
12 16.09 З 2 н/о н/о +26.0 +12.7 44 +28 +28 жарко 1016.6 998.2
13 16.09 СЗ 2 н/о н/о +26.5 +12.8 43 +28 +28 жарко 1015.8 997.5
14 16.09 З 1 н/о н/о +26.4 +14.8 49 +29 +29 жарко 1015.1 996.8
15 16.09 З 1 н/о н/о +26.0 +14.0 48 +28 +28 жарко 1014.7 996.4
16 16.09 ЮЗ 1 н/о н/о +25.4 +13.5 48 +28 +28 жарко 1014.3 995.9
17 16.09 З 1 н/о н/о +24.1 +12.9 50 +26 +26 жарко 1014.2 995.7
18 16.09 З 1 н/о н/о +23.0 +13.6 55 +26 +26 жарко 1014.4 995.9 +15.7 +27.1
19 16.09 СЗ 1 н/о н/о +21.0 +14.1 65 +25 +25 комфорт 1014.7 996.0
20 16.09 З 1 н/о н/о +20.7 +14.1 66 +24 +24 комфорт 1015.0 996.3
21 16.09 СЗ 2 н/о н/о +21.3 +13.5 61 +24 +24 комфорт 1015.0 996.4
22 16.09 СЗ 1 н/о н/о +20.5 +13.5 64 +24 +24 комфорт 1014.7 996.0
23 16.09 З 1 н/о н/о +20.3 +12.7 62 +23 +23 комфорт 1014.6 995.9
00 17.09 З 2 н/о н/о +21.0 +10.7 52 +24 +24 комфорт 1014.5 995.8
01 17.09 СЗ 1 н/о н/о +20.1 +11.4 57 +23 +23 комфорт 1014.4 995.7
02 17.09 З 2 н/о н/о +19.8 +12.0 61 +22 +22 комфорт 1014.2 995.5
03 17.09 СЗ 1 н/о н/о +19.4 +11.9 62 +22 +22 комфорт 1014.1 995.3
04 17.09 З 1 н/о н/о +18.8 +12.3 66 +21 +21 комфорт 1014.2 995.4
05 17.09 СЗ 1 н/о н/о +18.6 +12.4 67 +20 +20 1014.5 995.7
06 17.09 СЗ 2 н/о н/о +18.8 +12.7 68 +20 +20 1014.7 995.9 +18.3 +23.1 0.0
07 17.09 СЗ 3 н/о н/о +19.3 +13.2 68 +21 +21 комфорт 1015.3 996.5
08 17.09 С 2 н/о н/о +18.9 +13.4 70 +20 +20 1015.7 996.9 0.0
09 17.09 С 4 н/о н/о +16.2 +11.3 73 +15 +15 1016.5 997.5 0.0
10 17.09 С 3 н/о н/о +16.7 +9.8 64 +17 +17 1016.3 997.3 0.0
11 17.09 С 2 н/о н/о +16.2 +10.6 69 +16 +16 1015.9 996.9 0.0
12 17.09 СЗ 2 н/о н/о +16.6 +11.1 70 +17 +17 1015.5 996.5 0.0
13 17.09 СЗ 2 н/о осадки н/о +16.1 +12.0 77 +16 +16 1014.9 995.9 0.1
14 17.09 СЗ 1 н/о н/о +17.2 +12.5 74 +18 +18 1014.2 995.3 0.0
15 17.09 З 1 н/о {осадки} н/о +19.0 +12.7 67 +21 +21 комфорт 1013.7 994.9 0.1
16 17.09 З 1 н/о н/о +19.0 +13.2 69 +21 +21 комфорт 1013.1 994.3
17 17.09 З 1 н/о н/о +18.2 +13.2 73 +20 +20 1013.2 994.4
18 17.09 З 1 н/о {осадки} н/о +16.9 +12.9 77 +18 +18 1013.8 994.9 +15.6 +19.8 0.1
19 17.09 З 1 н/о н/о +16.1 +12.7 80 +17 +17 1014.6 995.6
20 17.09 С 1 н/о н/о +15.5 +12.0 80 +16 +16 1015.5 996.5
21 17.09 З 1 н/о н/о +16.2 +10.6 69 +17 +17 1015.6 996.6
22 17.09 СЗ 1 н/о н/о +16.2 +10.8 70 +17 +17 1016.1 997.1
23 17.09 СЗ 2 н/о н/о +16.0 +10.1 68 +16 +16 1016.7 997.7
00 18.09 С 3 н/о н/о +15.3 +7.9 61 +15 +15 1017.6 998.5
01 18.09 СЗ 2 н/о н/о +14.4 +7.0 61 +14 +14 1018.0 998.8
02 18.09 СЗ 4 н/о н/о +13.5 +4.3 54 +12 +12 1018.9 999.6
03 18.09 С 3 н/о н/о +12.6 +2.4 50 +11 +11 1019.9 1000.5
04 18.09 СЗ 2 н/о н/о +11.8 +2.9 54 +11 +11 1020.8 1001.4
05 18.09 СЗ 2 н/о н/о +10.8 +3.3 60 +10 +10 1021.7 1002.2
06 18.09 З 2 н/о н/о +11.7 +3.9 59 +11 +11 1022.2 1002.7 +10.7 +17.0
07 18.09 СЗ 4 н/о н/о +12.9 +4.1 55 +11 +11 1022.8 1003.4
08 18.09 СЗ 4 н/о н/о +13.7 +3.4 50 +12 +12 1023.3 1004.0
09 18.09 СЗ 3 н/о н/о +14.8 +2.7 44 +14 +14 1023.5 1004.2
10 18.09 СЗ 3 н/о н/о +15.8 +1.9 39 +15 +15 1023.4 1004.2
11 18.09 СЗ 3 н/о н/о +16.5 +0.7 34 +16 +16 1023.3 1004.1
12 18.09 СЗ 3 н/о н/о +17.7 -0.9 28 +18 +18 1022.5 1003.4
13 18.09 СЗ 3 н/о н/о +18.6 -0.7 27 +19 +19 1022.1 1003.1
14 18.09 СЗ 3 н/о н/о +18.4 -2.0 25 +19 +19 1021.7 1002.7
15 18.09 СЗ 2 н/о н/о +18.6 -1.5 26 +19 +19 1021.3 1002.3
16 18.09 С 3 н/о н/о +17.6 -0.9 28 +18 +18 1021.4 1002.3
17 18.09 С 2 н/о н/о +15.9 +0.7 36 +16 +16 1021.7 1002.5

 

Местоположение метеостанции Вена Донауфельд (Австрия): широта 48.25 долгота 16.43 высота над уровнем моря 161 м.

В архиве по умолчанию представлена погода в Вене Донауфельд за последнюю неделю. Архивные данные за месяц целиком и за предыдущие месяцы, начиная с января 2011 года, Вы можете получить, выбрав интересующий диапазон дат из раскрывающегося списка и нажав кнопку "Ввод!".


*Определитесь, кто Вы:
робот инопланетянин человек

Внимание! Время в таблицах - всемирное. Для получения местного времени необходимо прибавить поправку, которая равна 1 ч.

Смотрите также архив погоды в соседних городах и на ближайших метеорологических станциях:

Погода в Вене (Австрия) (4 км)
Погода в Вене город (Австрия) (7 км)
Погода в Грос-Энцерсдорфе (Австрия) (12 км)
Погода в Вене электроподстанция (Австрия) (13 км)
Погода в Мариябрунн (Австрия) (16 км)
Погода в Вене аэропорт (Австрия) (18 км)
Погода в Штоккерау (Австрия) (23 км)
Погода в Тульн-ан-дер-Донау (Австрия) (24 км)
Погода в Гумпольдскирхене (Австрия) (27 км)
Погода в Зайберсдорфе (Австрия) (30 км)

Пояснения к столбцам:

Ветер - указаны скорость ветра в м/с - средняя за 10 мин, порывы в срок и между сроками (в фигурных скобках) и направление, откуда дует ветер: С - северный, СВ - северо-восточный, В - восточный, ЮВ - юго-восточный, Ю - южный, ЮЗ - юго-западный, З - западный, СЗ - северо-западный.
Видимость - горизонтальная дальность видимости в метрах или километрах. При видимости от 1 до 10 км при отсутствии осадков обычно наблюдается дымка, при ухудшении видимости до 1 км и менее - туман. В сухую погоду видимость может ухудшаться дымом, пылью или мглою.
Явления - указаны атмосферные явления, наблюдавшиеся в срок или в последний час перед сроком; фигурными скобками обозначены явления, наблюдавшиеся между сроками (за 1-3 часа до срока); квадратными скобками обозначены град или гололедные отложения с указанием их диаметра в мм.
Облачность - указаны через наклонную черту общая и нижняя облачность в баллах и высота нижней границы облаков в метрах; квадратными скобками обозначены формы облаков: Ci - перистые, Cs - перисто-слоистые, Cc - перисто-кучевые, Ac - высококучевые, As - высокослоистые, Sc - слоисто-кучевые, Ns - слоисто-дождевые, Cu - кучевые, Cb - кучево-дождевые. Подробнее классификацию облаков см. в Атласе облаков (PDF).
T - Температура воздуха - температура, измеренная на высоте 2 м над землей.
Td - Температура точки росы - температура, при понижении до которой содержащийся в воздухе водяной пар достигнет насыщения.
f - Относительная влажность воздуха - влажноcть воздуха, измеренная на высоте 2 м над землей.
Te - Эффективная температура - температура, которую ощущает одетый по сезону человек в тени. Характеристика душности погоды. При расчете учитывается влияние влажности воздуха и скорости ветра на теплоощущения человека.
Tes - Эффективная температура на солнце - температура, которую ощущает человек, с поправкой на солнечный нагрев. Характеристика знойности погоды. Зависит от высоты солнца над горизонтом, облачности и скорости ветра. Ночью, в пасмурную погоду, а также при ветре 12 м/с и более поправка равна нулю.
P - Атмосферное давление - приведенное к уровню моря атмосферное давление.
Po - Атмосферное давление - измеренное на уровне метеостанции атмосферное давление.
Tmin - Минимальная температура - минимум температуры воздуха на высоте 2 м над землей.
Tmax - Максимальная температура - максимум температуры воздуха на высоте 2 м над землей.
R - Количество осадков - Количество выпавших осадков за период времени, мм. При наведении курсора мыши на число - период времени, за который выпало указанное количество осадков.
R24 - Количество осадков - Количество выпавших осадков за 24 часа, мм.
S - Снежный покров - Высота снежного покрова, см. При наведении курсора мыши на число - состояние снежного покрова и степень покрытия местности в баллах.